Location: Ełk
(53.8214°N, 22.3622°E)
Time: 02:29:16
(UTC+01:00)

ISS - Pass Details

Date: 28 January 2019
Orbit: 403 x 411 km, 51.6° (Epoch: 17 February)

Event Time Altitude Azimuth Distance (km) Brightness Sun altitude
Rises 19:08:24 0° 262° (W) 2,338 1.2 -27.0°
Reaches altitude 10° 19:10:30 10° 259° (W) 1,478 -0.1 -27.3°
Enters shadow 19:11:38 20° 254° (WSW) 1,031 -1.1 -27.5°
